Time,TemperatureF,DewpointF,PressureIn,WindDirection,WindDirectionDegrees,WindSpeedMPH,WindSpeedGustMPH,Humidity,HourlyPrecipIn,Conditions,Clouds,dailyrainin,SolarRadiationWatts/m^2,SoftwareType,DateUTC
2013-03-10 00:02:00,67.0,57.0,-100.00,ENE,78,9.0,18.0,70,0.00,,,0.00,0.000000,,2013-03-10 05:02:00,
2013-03-10 00:11:00,67.0,57.0,-100.00,ENE,78,9.0,18.0,70,0.00,,,0.00,0.000000,,2013-03-10 05:11:00,
2013-03-10 00:22:00,67.0,57.0,-100.00,ENE,78,9.0,18.0,70,0.00,,,0.00,0.000000,,2013-03-10 05:22:00,
2013-03-10 00:32:00,67.0,57.0,-100.00,ENE,78,9.0,18.0,70,0.00,,,0.00,0.000000,,2013-03-10 05:32:00,
2013-03-10 00:52:00,67.0,58.0,-100.00,ENE,76,8.0,16.0,72,0.00,,,0.00,0.000000,,2013-03-10 05:52:00,
2013-03-10 01:02:00,67.0,58.0,-100.00,ENE,76,8.0,16.0,72,0.00,,,0.00,0.000000,,2013-03-10 06:02:00,
2013-03-10 01:11:00,67.0,58.0,-100.00,ENE,76,8.0,16.0,72,0.00,,,0.00,0.000000,,2013-03-10 06:11:00,
2013-03-10 01:22:00,67.0,58.0,-100.00,ENE,76,8.0,16.0,72,0.00,,,0.00,0.000000,,2013-03-10 06:22:00,
2013-03-10 01:32:00,67.0,58.0,-100.00,ENE,76,8.0,16.0,72,0.00,,,0.00,0.000000,,2013-03-10 06:32:00,
2013-03-10 10:02:00,73.0,56.0,-100.00,ESE,103,7.0,13.0,56,-99.99,,,0.00,261.000000,,2013-03-10 14:02:00,
2013-03-10 10:12:00,73.0,56.0,-100.00,ESE,103,7.0,13.0,56,-99.99,,,0.00,261.000000,,2013-03-10 14:12:00,
2013-03-10 10:22:00,73.0,56.0,-100.00,ESE,103,7.0,13.0,56,-99.99,,,0.00,261.000000,,2013-03-10 14:22:00,
2013-03-10 10:32:00,73.0,56.0,-100.00,ESE,103,7.0,13.0,56,-99.99,,,0.00,261.000000,,2013-03-10 14:32:00,
2013-03-10 11:01:00,73.0,56.0,-100.00,East,94,8.0,16.0,55,0.00,,,0.00,408.000000,,2013-03-10 15:01:00,
2013-03-10 11:11:00,73.0,56.0,-100.00,East,94,8.0,16.0,55,0.00,,,0.00,408.000000,,2013-03-10 15:11:00,
2013-03-10 11:21:00,73.0,56.0,-100.00,East,94,8.0,16.0,55,0.00,,,0.00,408.000000,,2013-03-10 15:21:00,
2013-03-10 11:32:00,73.0,56.0,-100.00,East,94,8.0,16.0,55,0.00,,,0.00,408.000000,,2013-03-10 15:32:00,
2013-03-10 12:02:00,75.0,55.0,-100.00,East,95,9.0,18.0,50,0.00,,,0.00,649.000000,,2013-03-10 16:02:00,
2013-03-10 12:12:00,75.0,55.0,-100.00,East,95,9.0,18.0,50,0.00,,,0.00,649.000000,,2013-03-10 16:12:00,
2013-03-10 12:21:00,75.0,55.0,-100.00,East,95,9.0,18.0,50,0.00,,,0.00,649.000000,,2013-03-10 16:21:00,
2013-03-10 12:32:00,75.0,55.0,-100.00,East,95,9.0,18.0,50,0.00,,,0.00,649.000000,,2013-03-10 16:32:00,
2013-03-10 14:01:00,76.0,56.0,-100.00,East,95,9.0,17.0,50,-99.99,,,0.00,762.000000,,2013-03-10 18:01:00,
2013-03-10 14:12:00,76.0,56.0,-100.00,East,95,9.0,17.0,50,-99.99,,,0.00,762.000000,,2013-03-10 18:12:00,
2013-03-10 14:22:00,76.0,56.0,-100.00,East,95,9.0,17.0,50,-99.99,,,0.00,762.000000,,2013-03-10 18:22:00,
2013-03-10 14:32:00,76.0,56.0,-100.00,East,95,9.0,17.0,50,-99.99,,,0.00,762.000000,,2013-03-10 18:32:00,
2013-03-10 15:02:00,78.0,57.0,-100.00,ESE,106,7.0,18.0,49,0.00,,,0.00,866.000000,,2013-03-10 19:02:00,
2013-03-10 15:11:00,78.0,57.0,-100.00,ESE,106,7.0,18.0,49,0.00,,,0.00,866.000000,,2013-03-10 19:11:00,
2013-03-10 15:22:00,78.0,57.0,-100.00,ESE,106,7.0,18.0,49,0.00,,,0.00,866.000000,,2013-03-10 19:22:00,
2013-03-10 15:32:00,78.0,57.0,-100.00,ESE,106,7.0,18.0,49,0.00,,,0.00,866.000000,,2013-03-10 19:32:00,
2013-03-10 16:02:00,77.0,57.0,-100.00,ESE,107,8.0,17.0,51,0.00,,,0.00,784.000000,,2013-03-10 20:02:00,
2013-03-10 16:13:00,77.0,57.0,-100.00,ESE,107,8.0,17.0,51,0.00,,,0.00,784.000000,,2013-03-10 20:13:00,
2013-03-10 16:22:00,77.0,57.0,-100.00,ESE,107,8.0,17.0,51,0.00,,,0.00,784.000000,,2013-03-10 20:22:00,
2013-03-10 16:32:00,77.0,57.0,-100.00,ESE,107,8.0,17.0,51,0.00,,,0.00,784.000000,,2013-03-10 20:32:00,
2013-03-10 16:53:00,76.0,59.0,-100.00,ESE,109,7.0,16.0,56,0.00,,,0.00,520.000000,,2013-03-10 20:53:00,
2013-03-10 17:02:00,76.0,59.0,-100.00,ESE,109,7.0,16.0,56,0.00,,,0.00,520.000000,,2013-03-10 21:02:00,
2013-03-10 17:12:00,76.0,59.0,-100.00,ESE,109,7.0,16.0,56,0.00,,,0.00,520.000000,,2013-03-10 21:12:00,
2013-03-10 17:23:00,76.0,59.0,-100.00,ESE,109,7.0,16.0,56,0.00,,,0.00,520.000000,,2013-03-10 21:23:00,
2013-03-10 17:32:00,76.0,59.0,-100.00,ESE,109,7.0,16.0,56,0.00,,,0.00,520.000000,,2013-03-10 21:32:00,
2013-03-10 17:53:00,76.0,59.0,-100.00,East,100,6.0,16.0,56,0.00,,,0.00,331.000000,,2013-03-10 21:53:00,
2013-03-10 18:03:00,76.0,59.0,-100.00,East,100,6.0,16.0,56,0.00,,,0.00,331.000000,,2013-03-10 22:03:00,
2013-03-10 18:12:00,76.0,59.0,-100.00,East,100,6.0,16.0,56,0.00,,,0.00,331.000000,,2013-03-10 22:12:00,
2013-03-10 18:22:00,76.0,59.0,-100.00,East,100,6.0,16.0,56,0.00,,,0.00,331.000000,,2013-03-10 22:22:00,
2013-03-10 18:32:00,76.0,59.0,-100.00,East,100,6.0,16.0,56,0.00,,,0.00,331.000000,,2013-03-10 22:32:00,
2013-03-10 18:53:00,73.0,58.0,-100.00,ESE,108,7.0,15.0,60,0.00,,,0.00,230.000000,,2013-03-10 22:53:00,
2013-03-10 19:03:00,73.0,58.0,-100.00,ESE,108,7.0,15.0,60,0.00,,,0.00,230.000000,,2013-03-10 23:03:00,
2013-03-10 19:12:00,73.0,58.0,-100.00,ESE,108,7.0,15.0,60,0.00,,,0.00,230.000000,,2013-03-10 23:12:00,
2013-03-10 19:23:00,73.0,58.0,-100.00,ESE,108,7.0,15.0,60,0.00,,,0.00,230.000000,,2013-03-10 23:23:00,
2013-03-10 19:33:00,73.0,58.0,-100.00,ESE,108,7.0,15.0,60,0.00,,,0.00,230.000000,,2013-03-10 23:33:00,
2013-03-10 20:03:00,71.0,60.0,-100.00,ESE,104,7.0,16.0,68,0.00,,,0.00,56.000000,,2013-03-11 00:03:00,
2013-03-10 20:13:00,71.0,60.0,-100.00,ESE,104,7.0,16.0,68,0.00,,,0.00,56.000000,,2013-03-11 00:13:00,
2013-03-10 20:23:00,71.0,60.0,-100.00,ESE,104,7.0,16.0,68,0.00,,,0.00,56.000000,,2013-03-11 00:23:00,
2013-03-10 20:33:00,71.0,60.0,-100.00,ESE,104,7.0,16.0,68,0.00,,,0.00,56.000000,,2013-03-11 00:33:00,
2013-03-10 21:03:00,70.0,59.0,-100.00,East,99,6.0,14.0,69,0.00,,,0.00,0.000000,,2013-03-11 01:03:00,
2013-03-10 21:13:00,70.0,59.0,-100.00,East,99,6.0,14.0,69,0.00,,,0.00,0.000000,,2013-03-11 01:13:00,
2013-03-10 21:23:00,70.0,59.0,-100.00,East,99,6.0,14.0,69,0.00,,,0.00,0.000000,,2013-03-11 01:23:00,
2013-03-10 21:32:00,70.0,59.0,-100.00,East,99,6.0,14.0,69,0.00,,,0.00,0.000000,,2013-03-11 01:32:00,
2013-03-10 22:03:00,70.0,61.0,-100.00,East,101,5.0,12.0,73,0.00,,,0.00,0.000000,,2013-03-11 02:03:00,
2013-03-10 22:13:00,70.0,61.0,-100.00,East,101,5.0,12.0,73,0.00,,,0.00,0.000000,,2013-03-11 02:13:00,
2013-03-10 22:23:00,70.0,61.0,-100.00,East,101,5.0,12.0,73,0.00,,,0.00,0.000000,,2013-03-11 02:23:00,
2013-03-10 22:32:00,70.0,61.0,-100.00,East,101,5.0,12.0,73,0.00,,,0.00,0.000000,,2013-03-11 02:32:00,
2013-03-10 23:02:00,70.0,61.0,-100.00,East,86,5.0,12.0,74,0.00,,,0.00,0.000000,,2013-03-11 03:02:00,
2013-03-10 23:12:00,70.0,61.0,-100.00,East,86,5.0,12.0,74,0.00,,,0.00,0.000000,,2013-03-11 03:12:00,
2013-03-10 23:22:00,70.0,61.0,-100.00,East,86,5.0,12.0,74,0.00,,,0.00,0.000000,,2013-03-11 03:22:00,
2013-03-10 23:32:00,70.0,61.0,-100.00,East,86,5.0,12.0,74,0.00,,,0.00,0.000000,,2013-03-11 03:32:00,